Location: Hepcat Sky Observatory
(29.9800°N, 95.6500°W)
Time: 10:56:41
(UTC-05:00)

Cosmos 2366 rocket - Visible Passes

Search period start: 29 July 2015 00:00
Search period end: 08 August 2015 00:00
Orbit: 956 x 997 km, 82.9° (Epoch: 27 July)

Date Brightness Start Highest point End Pass type
(mag) Time Alt. Az. Time Alt. Az. Time Alt. Az.
29 Jul 5.8 03:20:18 10° NNE 03:25:10 24° ENE 03:28:26 17° ESE visible
29 Jul 4.5 05:05:01 10° NNW 05:10:42 37° W 05:13:03 27° SW visible
30 Jul 4.7 03:45:07 10° N 03:51:06 48° E 03:53:07 36° SE visible
30 Jul 5.3 05:31:57 10° NW 05:36:08 18° W 05:37:44 16° WSW visible
31 Jul 3.8 04:10:33 10° N 04:16:48 86° W 04:17:52 64° S visible
01 Aug 5.9 02:52:17 10° NNE 02:56:41 21° ENE 02:58:02 20° E visible
01 Aug 4.3 04:36:30 10° NNW 04:42:22 43° W 04:42:40 43° W visible
02 Aug 4.9 03:16:53 10° N 03:22:41 41° E 03:22:54 41° E visible
02 Aug 5.2 05:03:10 10° NW 05:07:32 22° W 05:07:32 22° W visible
03 Aug 4.1 03:42:12 10° N 03:47:49 72° NNE 03:47:49 72° NNE visible
04 Aug 6.1 02:24:22 10° NE 02:28:08 17° ENE 02:28:08 17° ENE visible
04 Aug 4.5 04:08:02 10° NNW 04:12:46 44° NW 04:12:46 44° NW visible
05 Aug 5.4 02:48:42 10° NNE 02:53:08 32° ENE 02:53:08 32° ENE visible
05 Aug 5.3 04:34:29 10° NW 04:37:47 23° WNW 04:37:47 23° WNW visible
06 Aug 4.8 03:13:52 10° N 03:18:10 45° NNE 03:18:10 45° NNE visible
06 Aug 6.0 05:02:32 10° WNW 05:02:49 10° WNW 05:02:49 10° WNW visible
07 Aug 6.4 01:56:36 10° NE 01:58:35 14° ENE 01:58:35 14° ENE visible
07 Aug 5.0 03:39:34 10° NNW 03:43:14 36° NNW 03:43:14 36° NNW visible
